Location: Great Chart
(51.1333°N, 0.8333°E)
Time: 11:45:18
(UTC+00:00)

Cosmos 2369 Rocket - Pass Details

Date: 19 September 2020
Orbit: 827 x 854 km, 71.0° (Epoch: 30 October)

Event Time Altitude Azimuth Distance (km) Brightness Sun altitude
Exits shadow 02:23:21 17° 313° (NW) 2,008 4.1 -28.3°
Maximum altitude 02:24:32 18° 329° (NNW) 1,954 4.2 -28.2°
Drops below altitude 10° 02:28:22 10° 11° (NNE) 2,476 5.3 -27.8°
Sets 02:31:41 0° 30° (NNE) 3,420 6.5 -27.4°
